STARLINK-1828, 46725

Orbit data source: Space-Track

STARLINK-1828, 46725 is a payload satellite owned by SpaceX/Seattle (US) in LEO that was launched on Sun, 18 Oct 2020 UTC via an FALCON 9 launch vehicle from the Air Force Eastern Test Range (AFETR). Payload-class satellites include a variety of spacecraft equipped with specific instruments for various scientific and technological missions. These include communications satellites like Starlink; space stations such as the ISS; scientific satellites like the Hubble; Earth observation satellites from companies like Planet Labs, Umbra, and HawkEye 360; GPS; miniature CubeSats for education and research; and military/defense satellites.

Loading next visibility...
Identifier
46725, 2020-073BH
Orbit
LEO
Country
Flag of USUS
Related business
Manufacturer
SpaceX/Seattle
Mission
Operational Commercial Communications
Bus & Motor
STARLINK, Unknown motor
Mass
260 kg wet, ~248 kg dry
Launch date (UTC)
2020-10-18 (5 years ago)
Launch vehicle
FALCON 9
Launch site
Air Force Eastern Test Range (AFETR)
Object type
Payload
Rocket body
Debris
Shape & HBR
Box + 1 Pan, 4.4 m
Radar Cross Section
13.562 m², Large (>1 m²)

Expand to show TLE details & history
Last TLE update: 18 hours ago

TLE from 18 hours ago
0 STARLINK-1828
1 46725U 20073BH  25260.47778798 -.00000484  00000-0 -13613-4 0  9994
2 46725  53.0537 314.1986 0001371  88.9329 271.1817 15.06384611270812
Epoch: 2025-09-17T11:28Z
TLE epoch observation values (Epoch: 2025-09-17T11:28:00.881Z)
Latitude
-0.00002°
Longitude
145.54174°
Altitude
548.118 km
Speed
7.589 km/s
True Right ascension
20h 56m 47s
True Declination
0° 00' 00"
Sunlit
Object was in full shadow at epoch
Visualization orbit readout
Latitude
Unknown
Longitude
Unknown
Altitude
Unknown
Speed
Unknown
Apparent Right ascension
Unknown
Apparent Declination
Unknown
Sunlit
N/A
Visualization observer readout
Local Sidereal Time
22:01:00
Azimuth
Unknown
Elevation
Unknown
Doppler factor
Unknown
Orbital elements
Apogee altitude
548.479 km
Perigee altitude
546.58 km
Semi-major axis
6,925.667 km
Eccentricity
0.00014
Inclination
53.0537°
RAAN
314.1986°
Arg. of periapsis
88.9329°
True anomaly
271.16599°
Mean anomaly
271.1817°
Eccentric anomaly
271.17385°
Mean motion
3.76574 °/min
Orbital period
95.6 mins
BSTAR
-0.000013613
Loading maneuver chart data...
Computing Atmospheric mass density...

Documentation

Showing up to 5 results
|